QPF
0.00 0.00 0.00 0.00 0.00 0.00 0.00 0.00 0.00 0.00 0.00 0.00 0.00 0.00 0.00 0.00 0.00 0.00 0.00 0.00 0.00 0.00 0.00 0.00 0.00 0.00 0.00 0.00 0.00 0.00 0.00 0.00 0.00 0.00 0.00 0.00 0.00 0.00 0.00 0.00 0.00 0.00 0.00
0.00 0.00 0.00 0.00 0.00 0.00 0.00 0.00 0.00 0.00 0.00 0.00 0.00 0.00 0.00 0.00 0.00 0.00 0.00 0.00 0.00 0.00 0.00 0.00 0.00 0.00 0.00 0.00 0.00 0.00 0.00 0.00 0.00 0.00 0.00 0.00 0.00 0.00 0.00 0.00 0.00 0.00 0.00
0.00 0.00 0.00 0.00 0.00 0.00 0.00 0.00 0.00 0.00 0.00 0.00 0.00 0.00 0.00 0.00 0.00 0.00 0.00 0.00 0.00 0.00 0.00 0.00 0.00 0.00 0.00 0.00 0.00 0.00 0.00 0.00 0.00 0.00 0.00 0.00 0.00 0.00 0.00 0.00 0.00 0.00 0.00
0.00 0.00 0.00 0.00 0.00 0.00 0.00 0.00 0.00 0.00 0.00 0.00 0.00 0.00 0.00 0.00 0.00 0.00 0.00 0.00 0.00 0.00 0.00 0.00 0.00 0.00 0.00 0.00 0.00 0.00 0.00 0.00 0.00 0.00 0.00 0.00 0.00 0.00 0.00 0.00 0.00 0.00 0.00
0.00 0.00 0.00 0.00 0.00 0.00 0.00 0.00 0.00 0.00 0.00 0.00 0.00 0.00 0.00 0.00 0.00 0.00 0.00 0.00 0.00 0.00 0.00 0.00 0.00 0.00 0.00 0.00 0.00 0.00 0.00 0.00 0.00 0.00 0.00 0.00 0.00 0.00 0.00 0.00 0.00 0.00 0.00
0.00 0.00 0.00 0.00 0.00 0.00 0.00 0.00 0.00 0.00 0.00 0.00 0.00 0.00 0.00 0.00 0.00 0.00 0.00 0.00 0.00 0.00 0.00 0.00 0.00 0.00 0.00 0.00 0.00 0.00 0.00 0.00 0.00 0.00 0.00 0.00 0.00 0.00 0.00 0.00 0.00 0.00 0.00
0.00 0.00 0.00 0.00 0.00 0.00 0.00 0.00 0.00 0.00 0.00 0.00 0.00 0.00 0.00 0.00 0.00 0.00 0.00 0.00 0.00 0.00 0.00 0.00 0.00 0.00 0.00 0.00 0.00 0.00 0.00 0.00 0.00 0.00 0.00 0.00 0.00 0.00 0.00 0.00 0.00 0.00 0.00
0.00 0.00 0.00 0.00 0.00 0.00 0.00 0.00 0.00 0.00 0.00 0.00 0.00 0.00 0.00 0.00 0.00 0.00 0.00 0.00 0.00 0.00 0.00 0.00 0.00 0.00 0.00 0.00 0.00 0.00 0.00 0.00 0.00 0.00 0.00 0.00 0.00 0.00 0.00 0.00 0.00 0.00 0.00
0.00 0.00 0.00 0.00 0.00 0.00 0.00 0.00 0.00 0.00 0.00 0.00 0.00 0.00 0.00 0.00 0.00 0.00 0.00 0.00 0.00 0.00 0.00 0.00 0.00 0.00 0.00 0.00 0.00 0.00 0.00 0.00 0.00 0.00 0.00 0.00 0.00 0.00 0.00 0.00 0.00 0.01 0.00
0.00 0.00 0.00 0.00 0.00 0.00 0.00 0.00 0.00 0.00 0.00 0.00 0.00 0.00 0.00 0.00 0.00 0.00 0.00 0.00 0.00 0.00 0.00 0.00 0.00 0.00 0.00 0.00 0.00 0.00 0.00 0.00 0.00 0.00 0.00 0.00 0.00 0.00 0.00 0.00 0.00 0.00 0.01
0.00 0.00 0.00 0.00 0.00 0.00 0.00 0.00 0.00 0.00 0.00 0.00 0.00 0.00 0.00 0.00 0.00 0.00 0.00 0.00 0.00 0.00 0.00 0.00 0.00 0.00 0.00 0.00 0.00 0.00 0.00 0.00 0.00 0.00 0.00 0.00 0.00 0.00 0.00 0.00 0.00 0.00 0.00
0.00 0.00 0.00 0.00 0.00 0.00 0.00 0.00 0.00 0.00 0.00 0.00 0.00 0.00 0.00 0.00 0.00 0.00 0.00 0.00 0.00 0.00 0.00 0.00 0.00 0.00 0.00 0.00 0.00 0.00 0.00 0.00 0.00 0.00 0.00 0.00 0.00 0.00 0.00 0.00 0.00 0.00 0.00
0.00 0.00 0.00 0.00 0.00 0.00 0.00 0.00 0.00 0.00 0.00 0.00 0.00 0.00 0.00 0.00 0.00 0.00 0.00 0.00 0.00 0.00 0.00 0.00 0.00 0.00 0.00 0.00 0.00 0.00 0.00 0.00 0.00 0.00 0.00 0.00 0.00 0.00 0.00 0.00 0.00 0.00 0.00
0.00 0.00 0.00 0.00 0.00 0.00 0.00 0.00 0.00 0.00 0.00 0.00 0.00 0.00 0.00 0.00 0.00 0.00 0.00 0.00 0.00 0.00 0.00 0.00 0.00 0.00 0.00 0.00 0.00 0.00 0.00 0.00 0.00 0.00 0.00 0.00 0.00 0.00 0.00 0.00 0.00 0.00 0.00
0.00 0.00 0.00 0.00 0.00 0.00 0.00 0.00 0.00 0.00 0.00 0.00 0.00 0.00 0.00 0.00 0.00 0.00 0.00 0.00 0.00 0.00 0.00 0.00 0.00 0.00 0.00 0.00 0.00 0.00 0.00 0.00 0.00 0.00 0.00 0.00 0.00 0.00 0.01 0.03 0.03 0.03 0.03
0.00 0.00 0.00 0.00 0.00 0.00 0.00 0.00 0.00 0.00 0.00 0.00 0.00 0.00 0.00 0.00 0.00 0.00 0.00 0.00 0.00 0.00 0.00 0.00 0.00 0.00 0.00 0.00 0.00 0.00 0.00 0.00 0.00 0.00 0.00 0.00 0.00 0.00 0.00 0.00 0.00 0.00 0.02
0.00 0.00 0.00 0.00 0.00 0.00 0.00 0.00 0.00 0.00 0.00 0.00 0.00 0.00 0.00 0.00 0.00 0.00 0.00 0.00 0.00 0.00 0.00 0.00 0.00 0.00 0.00 0.00 0.00 0.00 0.00 0.00 0.00 0.00 0.00 0.00 0.00 0.00 0.00 0.00 0.00 0.00 0.00
0.00 0.00 0.00 0.00 0.00 0.00 0.00 0.00 0.00 0.00 0.00 0.00 0.00 0.00 0.00 0.00 0.00 0.00 0.00 0.00 0.00 0.00 0.00 0.00 0.00 0.00 0.00 0.00 0.00 0.00 0.00 0.00 0.00 0.00 0.00 0.00 0.00 0.00 0.00 0.00 0.00 0.00 0.00
0.00 0.00 0.00 0.00 0.00 0.00 0.00 0.00 0.00 0.00 0.00 0.00 0.00 0.00 0.00 0.00 0.00 0.00 0.00 0.00 0.00 0.00 0.00 0.00 0.00 0.00 0.00 0.00 0.00 0.00 0.00 0.00 0.00 0.00 0.00 0.00 0.00 0.00 0.01 0.00 0.02 0.02 0.01
0.00 0.00 0.00 0.00 0.00 0.00 0.00 0.00 0.00 0.00 0.00 0.00 0.00 0.00 0.00 0.00 0.00 0.00 0.00 0.00 0.00 0.00 0.00 0.00 0.00 0.00 0.00 0.00 0.00 0.00 0.00 0.00 0.00 0.00 0.00 0.00 0.00 0.00 0.02 0.01 0.02 0.01 0.00
0.00 0.00 0.00 0.00 0.00 0.00 0.00 0.00 0.00 0.00 0.00 0.00 0.00 0.00 0.00 0.00 0.00 0.00 0.00 0.00 0.00 0.00 0.00 0.00 0.00 0.00 0.00 0.00 0.00 0.00 0.00 0.01 0.00 0.00 0.01 0.00 0.01 0.00 0.00 0.01 0.01 0.02 0.02
0.00 0.00 0.00 0.00 0.00 0.00 0.00 0.00 0.00 0.00 0.00 0.00 0.00 0.00 0.00 0.00 0.00 0.00 0.00 0.00 0.00 0.00 0.00 0.00 0.00 0.00 0.00 0.00 0.00 0.00 0.00 0.00 0.01 0.01 0.00 0.00 0.00 0.01 0.02 0.03 0.04 0.04 0.03
0.00 0.00 0.00 0.00 0.00 0.00 0.00 0.00 0.00 0.00 0.00 0.00 0.00 0.00 0.00 0.00 0.00 0.00 0.00 0.00 0.00 0.00 0.00 0.00 0.00 0.00 0.00 0.00 0.00 0.00 0.00 0.00 0.00 0.00 0.00 0.01 0.02 0.02 0.02 0.02 0.01 0.00 0.00
0.00 0.00 0.00 0.00 0.00 0.00 0.00 0.00 0.00 0.00 0.00 0.00 0.00 0.00 0.00 0.00 0.00 0.00 0.00 0.00 0.00 0.00 0.00 0.00 0.00 0.00 0.00 0.00 0.00 0.00 0.00 0.00 0.00 0.00 0.01 0.01 0.03 0.03 0.02 0.00 0.00 0.00 0.00
0.00 0.00 0.00 0.00 0.00 0.00 0.00 0.00 0.00 0.00 0.00 0.00 0.00 0.00 0.00 0.00 0.00 0.00 0.00 0.00 0.00 0.00 0.01 0.01 0.00 0.00 0.00 0.00 0.01 0.02 0.03 0.03 0.03 0.04 0.05 0.05 0.01 0.00 0.00 0.00 0.00 0.00 0.00
0.00 0.00 0.00 0.00 0.00 0.00 0.00 0.00 0.00 0.00 0.00 0.00 0.00 0.00 0.00 0.00 0.00 0.00 0.00 0.00 0.00 0.01 0.01 0.01 0.03 0.03 0.03 0.03 0.02 0.01 0.01 0.01 0.01 0.07 0.06 0.01 0.00 0.00 0.00 0.00 0.00 0.00 0.00
MSLP
1031.97 1032.30 1032.59 1032.84 1033.02 1033.17 1033.21 1033.32 1033.34 1033.46 1033.42 1033.48 1033.65 1033.78 1034.12 1034.31 1034.29 1034.25 1034.25 1034.08 1033.93 1033.68 1033.57 1033.40 1033.11 1032.86 1032.74 1032.59 1032.13 1031.64 1031.09 1030.52 1030.09 1028.86 1027.36 1026.38 1025.42 1025.34 1025.61 1024.82 1024.28 1024.27 1023.67
1031.78 1032.27 1032.59 1032.79 1033.00 1033.25 1033.37 1033.42 1033.50 1033.56 1033.51 1033.45 1033.64 1033.80 1034.05 1034.38 1034.57 1034.71 1034.72 1034.54 1034.36 1034.13 1033.77 1033.77 1033.59 1033.39 1033.18 1032.98 1032.75 1032.46 1032.01 1031.58 1031.17 1030.72 1029.55 1028.07 1026.54 1025.72 1025.49 1025.55 1025.56 1025.31 1025.06
1031.07 1031.94 1032.53 1032.98 1033.25 1033.45 1033.56 1033.63 1033.73 1033.80 1033.87 1033.76 1033.63 1033.64 1033.74 1034.03 1034.35 1034.51 1034.57 1034.57 1034.44 1034.30 1034.13 1034.04 1033.88 1033.66 1033.45 1033.49 1033.36 1033.21 1032.84 1032.55 1031.95 1031.70 1031.45 1030.51 1029.94 1028.56 1026.45 1026.22 1026.20 1025.88 1025.87
1030.80 1031.54 1032.20 1032.79 1033.16 1033.48 1033.66 1033.84 1033.97 1033.92 1033.96 1033.99 1034.03 1034.17 1034.45 1034.63 1035.01 1035.04 1034.92 1034.80 1034.66 1034.48 1034.35 1034.24 1034.06 1033.92 1033.80 1033.82 1033.64 1033.39 1033.41 1033.14 1032.75 1032.17 1032.05 1032.04 1031.78 1030.64 1028.31 1027.04 1026.83 1026.82 1026.49
1030.50 1031.26 1031.99 1032.56 1033.10 1033.45 1033.77 1033.98 1034.17 1034.27 1034.53 1034.37 1034.39 1034.59 1034.88 1035.19 1035.29 1035.33 1035.15 1034.96 1034.76 1034.59 1034.48 1034.36 1034.28 1034.11 1033.95 1033.88 1033.79 1033.69 1033.63 1033.44 1033.17 1032.84 1032.51 1032.15 1031.67 1031.00 1030.64 1028.59 1027.37 1027.24 1026.94
1030.92 1031.56 1032.16 1032.80 1033.41 1033.75 1034.08 1034.25 1034.43 1034.65 1034.76 1034.73 1034.86 1035.01 1035.34 1035.46 1035.43 1035.30 1035.17 1035.09 1034.97 1034.91 1034.82 1034.64 1034.56 1034.40 1034.16 1033.92 1033.81 1033.68 1033.58 1033.44 1033.13 1032.83 1032.57 1032.37 1032.04 1031.21 1031.03 1029.85 1028.93 1028.08 1026.88
1031.24 1031.97 1032.59 1033.20 1033.82 1034.21 1034.40 1034.59 1034.78 1035.05 1035.21 1035.33 1035.52 1035.70 1035.80 1035.85 1035.85 1035.76 1035.67 1035.47 1035.21 1035.16 1035.20 1035.02 1034.74 1034.50 1034.17 1033.88 1033.68 1033.51 1033.29 1033.13 1032.92 1032.65 1032.37 1032.06 1031.72 1031.37 1030.84 1030.18 1029.26 1028.31 1027.38
1032.34 1032.77 1033.34 1033.87 1034.17 1034.56 1034.91 1035.08 1035.28 1035.56 1035.78 1035.88 1035.91 1036.04 1036.05 1036.04 1035.94 1035.79 1035.85 1035.81 1035.73 1035.43 1035.13 1034.96 1034.86 1034.58 1034.17 1033.82 1033.60 1033.36 1033.11 1032.75 1032.58 1032.32 1032.04 1031.66 1031.28 1031.00 1030.69 1030.29 1029.78 1028.43 1027.65
1032.98 1033.56 1033.97 1034.48 1034.94 1035.30 1035.52 1035.62 1035.77 1035.91 1035.98 1036.00 1035.95 1036.04 1036.07 1036.13 1036.10 1035.98 1035.90 1035.76 1035.64 1035.24 1034.84 1034.90 1034.64 1034.35 1034.06 1033.73 1033.46 1033.17 1032.87 1032.73 1032.37 1031.92 1031.54 1031.22 1030.78 1030.45 1030.20 1029.91 1029.62 1029.11 1027.65
1033.61 1034.03 1034.40 1035.04 1035.33 1035.68 1035.87 1035.90 1036.04 1036.14 1036.17 1036.16 1036.16 1036.09 1036.31 1036.29 1036.21 1036.07 1035.86 1035.70 1035.45 1035.15 1034.92 1034.63 1034.39 1034.12 1033.81 1033.52 1033.34 1033.05 1032.60 1032.37 1031.99 1031.52 1031.18 1030.83 1030.49 1030.11 1029.77 1029.49 1029.18 1028.88 1028.19
1034.25 1034.70 1035.02 1035.46 1035.74 1036.13 1036.34 1036.31 1036.20 1036.21 1036.26 1036.35 1036.51 1036.57 1036.39 1036.16 1036.05 1035.86 1035.71 1035.46 1035.14 1034.92 1034.61 1034.28 1033.99 1033.70 1033.38 1033.08 1032.98 1032.72 1032.29 1031.93 1031.43 1031.17 1030.81 1030.28 1030.03 1029.59 1029.24 1028.99 1028.63 1028.15 1027.77
1034.50 1035.02 1035.51 1036.07 1036.25 1036.44 1036.63 1036.62 1036.53 1036.54 1036.50 1036.52 1036.49 1036.45 1036.23 1035.96 1035.85 1035.68 1035.40 1035.10 1034.83 1034.54 1034.28 1033.87 1033.52 1033.22 1032.87 1032.62 1032.49 1032.07 1031.74 1031.31 1030.90 1030.57 1030.32 1029.81 1029.40 1028.86 1028.61 1028.38 1027.83 1027.28 1026.94
1034.61 1035.21 1035.75 1036.24 1036.66 1036.73 1036.83 1036.88 1036.77 1036.66 1036.56 1036.53 1036.41 1036.12 1035.87 1035.73 1035.52 1035.34 1034.99 1034.75 1034.46 1034.15 1033.79 1033.33 1033.14 1032.81 1032.45 1032.14 1031.78 1031.48 1031.06 1030.74 1030.33 1029.91 1029.56 1029.04 1028.79 1028.18 1027.81 1027.62 1027.07 1026.39 1025.85
1034.61 1035.13 1035.74 1036.21 1036.60 1036.78 1036.94 1037.05 1036.93 1036.58 1036.41 1036.32 1036.27 1036.03 1035.65 1035.39 1035.18 1034.96 1034.66 1034.33 1033.95 1033.60 1033.28 1032.93 1032.56 1032.24 1031.94 1031.52 1031.13 1030.62 1030.23 1029.79 1029.30 1028.86 1028.37 1027.79 1027.54 1027.08 1026.70 1026.29 1025.67 1025.00 1024.69
1034.54 1034.99 1035.61 1036.16 1036.78 1036.81 1036.81 1036.83 1036.58 1036.34 1036.18 1036.15 1035.96 1035.55 1035.20 1034.90 1034.68 1034.36 1034.00 1033.65 1033.33 1032.95 1032.69 1032.28 1031.91 1031.70 1031.38 1030.76 1030.21 1029.68 1029.10 1028.59 1027.96 1027.46 1027.06 1026.65 1026.35 1025.69 1024.91 1024.43 1023.90 1023.77 1023.38
1034.95 1035.18 1035.49 1035.98 1036.37 1036.41 1036.51 1036.48 1036.32 1035.97 1035.73 1035.72 1035.43 1035.00 1034.75 1034.42 1034.09 1033.76 1033.41 1033.08 1032.73 1032.41 1032.09 1031.72 1031.39 1031.04 1030.60 1029.82 1029.05 1028.39 1027.89 1027.43 1026.94 1026.42 1026.08 1025.71 1025.22 1024.83 1024.16 1023.37 1022.67 1022.35 1021.84
1035.26 1035.41 1035.52 1035.84 1036.07 1036.08 1036.08 1035.87 1035.58 1035.20 1035.29 1035.23 1034.78 1034.45 1034.15 1033.84 1033.48 1033.16 1032.87 1032.53 1032.14 1031.79 1031.43 1031.06 1030.70 1030.20 1029.77 1029.08 1028.24 1027.48 1026.74 1026.34 1026.02 1025.74 1025.32 1024.76 1024.20 1023.79 1023.33 1022.73 1022.06 1021.27 1020.81
1035.38 1035.30 1035.32 1035.47 1035.44 1035.41 1035.31 1035.02 1034.90 1034.85 1034.80 1034.57 1034.18 1033.84 1033.52 1033.14 1032.73 1032.46 1032.18 1031.86 1031.53 1031.25 1030.83 1030.36 1029.93 1029.38 1028.87 1028.16 1027.36 1026.50 1025.91 1025.51 1025.14 1024.92 1024.52 1024.04 1023.25 1022.79 1022.33 1021.56 1020.75 1019.95 1019.38
1034.84 1034.80 1034.65 1034.64 1034.53 1034.57 1034.25 1034.27 1034.16 1033.99 1033.88 1033.42 1033.20 1032.74 1032.39 1032.22 1031.99 1031.78 1031.52 1031.18 1030.93 1030.54 1030.14 1029.62 1029.00 1028.45 1027.77 1027.34 1026.64 1025.89 1025.28 1024.69 1024.18 1023.88 1023.45 1022.95 1022.21 1021.51 1020.83 1020.00 1019.24 1018.46 1017.58
1034.35 1034.11 1033.75 1033.61 1033.53 1033.17 1033.03 1033.18 1032.92 1032.72 1032.40 1032.07 1031.71 1031.38 1031.24 1031.23 1031.23 1030.93 1030.73 1030.43 1030.19 1029.69 1029.29 1028.72 1028.26 1027.70 1026.94 1026.55 1025.88 1025.38 1024.70 1023.78 1023.19 1022.66 1022.00 1021.40 1020.65 1019.82 1018.98 1018.43 1017.93 1017.09 1016.22
1033.07 1032.68 1032.62 1032.48 1032.11 1031.84 1031.93 1031.98 1031.68 1031.40 1030.72 1030.59 1030.43 1030.30 1030.16 1030.18 1030.05 1029.93 1029.87 1029.70 1029.50 1029.07 1028.68 1028.27 1027.66 1027.09 1026.57 1025.86 1024.97 1024.10 1023.31 1022.70 1022.03 1021.33 1020.64 1020.06 1019.40 1018.49 1017.80 1017.08 1016.44 1015.71 1015.15
1031.42 1031.20 1030.99 1030.73 1030.48 1030.41 1030.68 1030.54 1030.28 1029.53 1029.53 1029.50 1029.45 1029.30 1029.11 1029.15 1029.15 1029.15 1029.01 1028.97 1028.98 1028.73 1028.08 1027.75 1026.97 1026.21 1025.51 1024.63 1023.78 1022.92 1022.07 1021.44 1020.79 1020.15 1019.47 1018.83 1018.22 1017.39 1016.56 1015.84 1015.13 1014.19 1013.61
1030.10 1029.82 1029.60 1029.22 1029.06 1028.98 1029.14 1029.03 1028.33 1028.56 1028.49 1028.57 1028.45 1028.28 1028.20 1028.22 1028.16 1028.36 1028.27 1028.22 1028.19 1027.90 1027.22 1026.87 1026.16 1025.20 1024.45 1023.63 1022.77 1021.97 1021.15 1020.44 1019.73 1019.13 1018.42 1017.44 1016.68 1015.89 1015.16 1014.74 1014.33 1013.41 1012.92
1028.78 1028.62 1028.43 1028.08 1027.75 1027.71 1027.63 1027.43 1027.37 1027.43 1027.55 1027.46 1027.30 1027.19 1027.34 1027.20 1027.11 1027.01 1026.87 1026.91 1026.82 1026.54 1026.10 1025.71 1025.15 1024.25 1023.47 1022.66 1021.81 1020.97 1020.14 1019.48 1018.85 1018.22 1017.41 1016.65 1015.73 1014.97 1014.60 1014.04 1013.61 1013.14 1012.59
1027.65 1027.54 1027.31 1026.98 1026.66 1026.63 1026.47 1026.37 1026.30 1026.32 1026.31 1026.25 1026.11 1026.02 1025.96 1025.98 1025.82 1025.69 1025.53 1025.51 1025.02 1024.90 1024.63 1024.13 1023.59 1022.94 1022.05 1021.01 1020.11 1019.33 1018.78 1018.05 1017.49 1016.64 1016.21 1015.64 1015.28 1014.78 1014.22 1013.61 1013.03 1012.46 1011.85
1026.72 1026.52 1026.29 1026.08 1025.75 1025.63 1025.41 1025.30 1025.25 1025.30 1025.24 1025.08 1024.93 1024.87 1024.77 1024.76 1024.73 1024.59 1024.12 1023.56 1023.05 1022.49 1021.84 1021.04 1020.66 1020.33 1019.78 1018.89 1018.09 1017.61 1017.31 1016.91 1016.44 1015.90 1015.67 1015.64 1015.17 1014.62 1013.98 1013.30 1012.49 1011.77 1011.07
Thickness
5495 5492 5489 5487 5485 5484 5483 5481 5481 5479 5479 5477 5475 5475 5472 5471 5471 5470 5470 5471 5473 5475 5477 5479 5481 5484 5487 5489 5494 5498 5503 5508 5515 5526 5540 5545 5552 5555 5554 5561 5568 5570 5575
5483 5478 5475 5473 5472 5469 5467 5467 5466 5464 5463 5463 5461 5460 5457 5454 5452 5451 5451 5452 5453 5455 5458 5460 5462 5465 5467 5469 5473 5477 5481 5484 5489 5494 5506 5520 5529 5537 5539 5541 5544 5549 5552
5476 5467 5461 5457 5454 5453 5452 5451 5449 5447 5446 5446 5445 5443 5442 5439 5436 5435 5434 5434 5435 5436 5437 5439 5442 5445 5447 5448 5450 5452 5457 5461 5465 5469 5472 5482 5487 5500 5516 5520 5522 5529 5531
5465 5457 5450 5443 5440 5437 5435 5432 5429 5428 5427 5427 5425 5423 5419 5417 5413 5412 5412 5413 5414 5416 5416 5418 5420 5422 5425 5427 5429 5431 5433 5437 5441 5446 5448 5450 5454 5467 5491 5499 5498 5502 5508
5454 5445 5437 5432 5425 5421 5417 5414 5412 5409 5406 5406 5405 5403 5399 5396 5394 5393 5393 5394 5394 5394 5395 5396 5398 5400 5402 5404 5406 5408 5410 5413 5416 5420 5425 5427 5433 5439 5450 5473 5484 5480 5484
5433 5428 5421 5415 5408 5404 5399 5396 5393 5389 5387 5386 5384 5381 5378 5375 5375 5374 5373 5372 5370 5369 5368 5369 5371 5373 5376 5379 5381 5384 5387 5390 5393 5397 5401 5405 5409 5417 5419 5435 5449 5463 5468
5416 5410 5403 5398 5391 5385 5380 5376 5373 5369 5366 5363 5360 5357 5354 5351 5349 5348 5347 5346 5346 5344 5342 5342 5343 5345 5348 5351 5354 5356 5358 5362 5366 5371 5376 5381 5386 5393 5399 5407 5419 5432 5448
5393 5388 5381 5374 5370 5365 5358 5355 5351 5347 5343 5339 5337 5334 5331 5329 5326 5325 5322 5320 5318 5318 5319 5318 5317 5317 5320 5322 5325 5327 5329 5333 5336 5341 5347 5353 5359 5365 5372 5379 5386 5402 5414
5367 5361 5357 5350 5344 5338 5334 5331 5327 5323 5319 5317 5314 5311 5308 5305 5303 5300 5298 5296 5294 5294 5294 5293 5294 5294 5294 5295 5297 5298 5299 5302 5305 5311 5316 5321 5327 5333 5340 5348 5356 5364 5380
5345 5337 5331 5326 5320 5316 5311 5308 5304 5300 5297 5293 5289 5286 5280 5277 5275 5274 5272 5270 5269 5268 5268 5268 5267 5267 5267 5268 5269 5270 5269 5272 5273 5279 5284 5289 5294 5301 5305 5311 5319 5327 5340
5324 5317 5308 5303 5298 5293 5287 5284 5281 5276 5272 5266 5260 5255 5252 5250 5247 5245 5242 5240 5240 5239 5239 5239 5239 5238 5238 5237 5238 5239 5241 5243 5245 5247 5251 5256 5259 5267 5272 5278 5286 5294 5300
5303 5293 5286 5278 5274 5268 5264 5259 5255 5249 5244 5239 5234 5229 5226 5224 5221 5217 5214 5212 5211 5209 5208 5208 5208 5207 5206 5206 5206 5207 5207 5211 5215 5215 5219 5224 5226 5235 5237 5240 5250 5260 5266
5282 5272 5265 5258 5250 5244 5238 5235 5230 5224 5219 5214 5209 5204 5201 5198 5194 5191 5187 5184 5183 5181 5179 5179 5177 5175 5173 5173 5174 5174 5176 5178 5180 5183 5186 5192 5192 5201 5203 5205 5213 5222 5231
5268 5253 5246 5236 5227 5220 5211 5207 5203 5199 5194 5189 5183 5177 5173 5169 5165 5162 5157 5154 5153 5152 5150 5149 5149 5147 5147 5147 5147 5148 5151 5154 5157 5159 5163 5168 5167 5171 5173 5177 5186 5194 5197
5248 5236 5221 5207 5199 5193 5190 5184 5179 5173 5169 5163 5157 5152 5148 5144 5141 5138 5135 5132 5129 5127 5126 5126 5126 5125 5125 5126 5127 5129 5134 5138 5144 5147 5148 5150 5150 5154 5158 5161 5169 5170 5174
5219 5212 5204 5195 5185 5176 5166 5161 5154 5150 5144 5140 5135 5130 5126 5123 5121 5118 5115 5112 5110 5108 5107 5106 5107 5108 5108 5110 5112 5116 5122 5126 5131 5135 5135 5136 5138 5140 5143 5148 5152 5155 5160
5185 5179 5172 5163 5155 5148 5143 5137 5134 5128 5120 5115 5114 5109 5107 5106 5104 5102 5098 5095 5094 5092 5091 5091 5092 5094 5095 5096 5100 5104 5111 5116 5120 5121 5122 5125 5129 5129 5131 5135 5136 5142 5147
5158 5154 5146 5140 5133 5128 5122 5117 5113 5109 5103 5100 5097 5094 5091 5090 5089 5086 5083 5080 5078 5076 5076 5078 5079 5082 5085 5086 5090 5095 5100 5105 5109 5108 5110 5111 5118 5120 5118 5122 5127 5134 5139
5134 5130 5124 5119 5116 5109 5106 5101 5099 5094 5089 5088 5083 5081 5079 5077 5074 5071 5067 5066 5064 5063 5063 5066 5070 5073 5077 5077 5080 5083 5088 5094 5099 5099 5101 5101 5106 5111 5113 5115 5119 5128 5139
5115 5114 5112 5110 5104 5101 5095 5090 5089 5084 5082 5078 5075 5073 5069 5064 5061 5059 5056 5054 5052 5054 5054 5057 5058 5062 5068 5068 5070 5072 5076 5084 5089 5092 5095 5098 5100 5105 5111 5111 5114 5121 5134
5111 5107 5104 5102 5099 5094 5086 5081 5079 5074 5074 5071 5068 5064 5059 5054 5052 5050 5045 5043 5041 5042 5043 5043 5047 5050 5052 5058 5061 5066 5071 5074 5078 5083 5089 5092 5093 5099 5104 5109 5112 5120 5127
5108 5105 5103 5101 5096 5088 5078 5076 5072 5069 5064 5059 5057 5054 5050 5046 5043 5038 5036 5031 5027 5027 5030 5029 5035 5040 5044 5049 5055 5059 5065 5068 5069 5075 5081 5085 5088 5094 5100 5105 5111 5120 5125
5104 5100 5097 5096 5091 5082 5074 5070 5068 5058 5053 5047 5044 5042 5038 5035 5031 5026 5025 5021 5016 5016 5020 5020 5025 5031 5035 5040 5045 5051 5057 5059 5062 5068 5073 5081 5086 5092 5099 5102 5106 5115 5120
5097 5093 5090 5088 5086 5076 5069 5063 5057 5050 5042 5037 5035 5031 5026 5024 5021 5020 5018 5015 5012 5010 5011 5012 5015 5021 5027 5032 5038 5043 5048 5051 5056 5060 5066 5073 5081 5089 5093 5097 5101 5106 5112
5089 5084 5080 5079 5076 5069 5062 5054 5047 5040 5035 5030 5026 5022 5019 5015 5014 5012 5010 5007 5008 5006 5006 5009 5011 5015 5023 5030 5037 5043 5046 5052 5055 5060 5064 5071 5074 5080 5085 5090 5096 5102 5108
5078 5073 5069 5066 5064 5058 5053 5045 5036 5029 5024 5022 5019 5015 5012 5008 5006 5004 5005 5005 5010 5012 5016 5021 5022 5024 5028 5035 5042 5045 5048 5050 5053 5057 5061 5062 5066 5071 5077 5083 5091 5097 5103